COSMOS 1083

Satellite information

Favourite Embed

Satellite Type and Status

PAYLOADIN ORBIT

Key statistics

Satellite COSMOS 1083 at a glance.

Uptime

16918

Days in orbit

Revolutions

≈ 12.5

Per day

Orbit

LEO

Low Earth Orbit

Inclination

74.0

Latest

Satellite identification and parameters

Extended collection of information and parameters for COSMOS 1083.

Object identification

Identified? True

Debris? False

Object name: COSMOS 1083

International designator: 1979-024C

Object number (NORAD): 11298

Object ID (CCSDS): 11298

Country: COMMONWEALTH OF INDEPENDENT STATES (CIS)

Current information (Y/N): Y

RCS size: MEDIUM

Orbital parameters

Period: 114.96 minutes

Inclination: 74.0359 deg

SMA: 7831.736 km

Apoapsis: 1464.8 km

Periapsis: 1442.402 km

RAAN: 324.6561 deg

Eccentricy: 0.0014299

Argument of periapsis: 102.308 deg

Mean anomaly: 11.6079 deg

Mean motion: 12.52609509 rev/day

Mean motion (dot): -0.0000002 rev/day2

B* drag term: -0.000024916 1/REarth

Two-line elements (TLE)

Creation date: July 9, 2025, 2:22 a.m.

Reference frame: TEME

Reference center: EARTH

Epoch: July 8, 2025, 7:34 p.m. UTC

TLE line 0: 0 COSMOS 1083

TLE line 1: 1 11298U 79024C 25189.81557351 -.00000020 00000-0 -24916-4 0 9993

TLE line 2: 2 11298 74.0359 324.6561 0014299 102.3080 11.6079 12.52609509117885

Live tracking on map

Real-time ground track for satellite COSMOS 1083.

In-orbit conjunctions

There are no conjunctions computed for COSMOS 1083, at the moment. Check back to stay up to date, as we update our databases every day.

Go to all conjunctions

Associated space launch

Military communications satellites

COSMOS 1083 was lifted into orbit during the mission ‘Kosmos-3M | Strela-1M 169-176’, on board a Kosmos-3M space rocket.

The launch took place on March 15, 1979, 2:58 a.m. from 132/2.

For more information about the launch, click the button.

Launch to space Kosmos-3M | Strela-1M 169-176
Kosmos-3M | Strela-1M 169-176

Agency: N/A

Status: Launch Successful

Launch date: March 15, 1979, 2:58 a.m. UTC

Rocket: Kosmos-3M

Launch pad: 132/2

Location: Plesetsk Cosmodrome, Russian Federation

...

Latest news about this satellite

There are no fresh news available about this satellite. Check back as we update our databases every day.


Newsletter sign-up

Weekly statistics, charts and insights to help you stay on top of the space industry.